パンスターズ彗星

P/2015 F1 ( PanSTARRS )

English version
Home page
Updated on March 3, 2018

---------------------------------------------------------------------

・ プロフィール

発見日 2015年3月21日
発見光度 19.1等
発見者 Pan-STARRS 1 telescope (Haleakala)

・ 写真集

・ 軌道要素

Epoch 2015 Feb. 27.0 TT = JDT 2457080.5
T 2015 Mar. 14.93020 TT                                 MPCW
q   2.5416132            (2000.0)            P               Q
n   0.14917979     Peri.  187.13186     -0.67488674     +0.73723880
a   3.5209733      Node    40.43027     -0.67459034     -0.59896640
e   0.2781504      Incl.    2.80446     -0.29909155     -0.31259911
P   6.61
From 195 observations 2015 Jan. 24-Aug. 16, mean residual 0".5.

・ 光度変化

        m1 = 11.8 + 5 logΔ + 10.0 log r

---------------------------------------------------------------------

軌道要素はM.P.E.C. 2018-D91に掲載されたものです。
光度グラフはComet for Windowsで作成したものです。

---------------------------------------------------------------------

Copyright(C) Seiichi Yoshida (comet@aerith.net). All rights reserved.